GW6389 Weather Reports


time (UTC)temp
C
wind
direction
speed
KPH
gust
KPH
rain 1hr
cm
rain 24hr
cm
rain mn
cm
humidity
%
barometer
mb
20260503014024 17 69 0.0 4.8 0.00 0.00 0.00 39 1014.9
20260503013538 17 89 1.6 4.8 0.00 0.00 0.00 38 1014.8
20260503013057 17 80 0.0 4.8 0.00 0.00 0.00 38 1015.0
20260503012542 17 67 1.6 4.8 0.00 0.00 0.00 37 1014.9
20260503012033 17 61 1.6 4.8 0.00 0.00 0.00 37 1014.9
20260503011637 17 54 1.6 4.8 0.00 0.00 0.00 35 1015.0
20260503011042 17 44 1.6 6.4 0.00 0.00 0.00 35 1015.0
20260503010524 17 63 4.8 6.4 0.00 0.00 0.00 36 1015.1
20260503010114 17 49 0.0 4.8 0.00 0.00 0.00 37 1015.2
20260503005545 17 60 1.6 6.4 0.00 0.00 0.00 36 1015.2
20260503005031 17 98 3.2 6.4 0.00 0.00 0.00 36 1015.2
20260503004640 17 86 1.6 4.8 0.00 0.00 0.00 36 1015.2
20260503004046 18 77 1.6 8.0 0.00 0.00 0.00 35 1015.3
20260503003515 18 106 3.2 9.7 0.00 0.00 0.00 34 1015.3
20260503003114 18 55 8.0 9.7 0.00 0.00 0.00 33 1015.3
20260503002525 18 42 3.2 8.0 0.00 0.00 0.00 32 1015.3
20260503002031 19 31 1.6 9.7 0.00 0.00 0.00 33 1015.4
20260503001646 19 63 1.6 9.7 0.00 0.00 0.00 32 1015.5
20260503001025 19 67 1.6 9.7 0.00 0.00 0.00 34 1015.4
20260503000529 18 301 1.6 9.7 0.00 0.00 0.00 32 1015.4
20260503000148 18 351 0.0 8.0 0.00 0.00 0.00 33 1015.5
20260502235538 18 242 1.6 11.3 0.00 0.00 0.00 33 1015.6
20260502235016 18 310 1.6 12.9 0.00 0.00 0.00 34 1015.6
20260502234628 18 269 4.8 12.9 0.00 0.00 0.00 35 1015.6
20260502234019 18 329 3.2 9.7 0.00 0.00 0.00 34 1015.6
20260502233537 18 352 0.0 12.9 0.00 0.00 0.00 33 1015.7
20260502233134 18 40 4.8 12.9 0.00 0.00 0.00 34 1015.8
20260502232544 18 14 3.2 12.9 0.00 0.00 0.00 34 1015.9
20260502232038 18 30 6.4 16.1 0.00 0.00 0.00 33 1015.9
20260502231634 18 352 11.3 16.1 0.00 0.00 0.00 34 1016.0
20260502231020 18 352 8.0 17.7 0.00 0.00 0.00 34 1015.9
20260502230522 18 5 6.4 17.7 0.00 0.00 0.00 34 1016.1
20260502230144 18 319 8.0 16.1 0.00 0.00 0.00 34 1016.1
20260502225531 18 360 4.8 17.7 0.00 0.00 0.00 33 1016.0
20260502225041 18 325 11.3 17.7 0.00 0.00 0.00 32 1016.1
20260502224624 18 300 4.8 8.0 0.00 0.00 0.00 34 1016.1
20260502224031 18 53 1.6 3.2 0.00 0.00 0.00 35 1016.2
20260502223527 18 113 0.0 11.3 0.00 0.00 0.00 35 1016.4
20260502223046 18 126 3.2 14.5 0.00 0.00 0.00 35 1016.5
20260502222533 18 82 4.8 14.5 0.00 0.00 0.00 34 1016.4
20260502222024 18 329 6.4 20.9 0.00 0.00 0.00 34 1016.4
20260502221626 19 346 12.9 20.9 0.00 0.00 0.00 34 1016.3
20260502221020 19 345 9.7 25.7 0.00 0.00 0.00 34 1016.5
20260502220537 19 22 3.2 25.7 0.00 0.00 0.00 34 1016.5
20260502220149 19 317 9.7 17.7 0.00 0.00 0.00 34 1016.6
20260502215519 18 51 4.8 16.1 0.00 0.00 0.00 33 1016.6
20260502215028 18 121 3.2 16.1 0.00 0.00 0.00 35 1016.7
20260502214641 18 352 3.2 17.7 0.00 0.00 0.00 35 1016.9
20260502214038 18 341 9.7 17.7 0.00 0.00 0.00 35 1017.1
20260502213524 18 307 1.6 12.9 0.00 0.00 0.00 35 1017.1
20260502213140 18 302 8.0 22.5 0.00 0.00 0.00 36 1017.2
20260502212534 18 317 17.7 22.5 0.00 0.00 0.00 34 1017.1
20260502212021 18 275 3.2 16.1 0.00 0.00 0.00 35 1017.3
20260502211632 18 284 3.2 16.1 0.00 0.00 0.00 34 1017.2
20260502211038 18 343 9.7 16.1 0.00 0.00 0.00 34 1017.3
20260502210538 18 302 4.8 19.3 0.00 0.00 0.00 34 1017.3
20260502210143 18 279 8.0 20.9 0.00 0.00 0.00 34 1017.4
20260502205526 18 323 9.7 20.9 0.00 0.00 0.00 35 1017.4
20260502205037 17 75 3.2 17.7 0.00 0.00 0.00 36 1017.6
20260502204627 17 333 8.0 20.9 0.00 0.00 0.00 35 1017.7
20260502204041 17 352 12.9 20.9 0.00 0.00 0.00 36 1017.7
20260502203531 17 337 4.8 19.3 0.00 0.00 0.00 37 1017.8
20260502203110 17 298 9.7 20.9 0.00 0.00 0.00 36 1017.9
20260502202519 17 348 6.4 19.3 0.00 0.00 0.00 36 1017.8
20260502202030 17 108 11.3 17.7 0.00 0.00 0.00 35 1018.0
20260502201631 17 332 11.3 17.7 0.00 0.00 0.00 35 1018.0
20260502201029 17 328 8.0 17.7 0.00 0.00 0.00 36 1018.1
20260502200521 17 5 6.4 19.3 0.00 0.00 0.00 34 1018.2
20260502200140 17 322 11.3 27.4 0.00 0.00 0.00 35 1018.1
20260502195531 17 293 14.5 27.4 0.00 0.00 0.00 35 1018.3
20260502195045 17 346 6.4 19.3 0.00 0.00 0.00 37 1018.2
20260502194551 17 352 3.2 20.9 0.00 0.00 0.00 34 1018.2
20260502194021 17 76 9.7 20.9 0.00 0.00 0.00 34 1018.4
20260502193543 17 345 8.0 25.7 0.00 0.00 0.00 37 1018.4
20260502193117 17 360 14.5 25.7 0.00 0.00 0.00 36 1018.4
20260502192539 17 304 8.0 17.7 0.00 0.00 0.00 35 1018.5
20260502192030 17 40 6.4 22.5 0.00 0.00 0.00 36 1018.5
20260502191612 17 352 9.7 22.5 0.00 0.00 0.00 37 1018.5
20260502191031 17 11 11.3 17.7 0.00 0.00 0.00 39 1018.6
20260502190526 17 30 9.7 22.5 0.00 0.00 0.00 38 1018.6
20260502190125 17 11 12.9 24.1 0.00 0.00 0.00 36 1018.8
20260502185537 17 9 11.3 24.1 0.00 0.00 0.00 36 1018.6
20260502185028 17 21 9.7 22.5 0.00 0.00 0.00 35 1018.8
20260502184558 17 36 9.7 22.5 0.00 0.00 0.00 39 1018.6
20260502184020 17 5 16.1 24.1 0.00 0.00 0.00 36 1018.8
20260502183538 17 331 12.9 24.1 0.00 0.00 0.00 37 1018.7
20260502183114 17 352 12.9 24.1 0.00 0.00 0.00 39 1018.9
20260502182523 17 296 14.5 27.4 0.00 0.00 0.00 38 1018.8
20260502182018 17 309 11.3 27.4 0.00 0.00 0.00 37 1018.8
20260502181623 17 321 11.3 22.5 0.00 0.00 0.00 38 1018.7
20260502181032 17 38 14.5 22.5 0.00 0.00 0.00 37 1018.8
20260502180516 17 39 12.9 25.7 0.00 0.00 0.00 37 1018.9
20260502170520 16 321 12.9 22.5 0.00 0.00 0.00 41 1019.1
20260502164031 16 71 11.3 17.7 0.00 0.00 0.00 42 1019.0
20260502163517 16 338 9.7 17.7 0.00 0.00 0.00 42 1019.1
20260502163056 16 14 8.0 16.1 0.00 0.00 0.00 41 1019.2
20260502162538 16 52 8.0 14.5 0.00 0.00 0.00 40 1019.1
20260502162024 16 318 6.4 14.5 0.00 0.00 0.00 42 1019.1
20260502161627 16 49 3.2 17.7 0.00 0.00 0.00 42 1019.0
20260502161042 16 319 11.3 17.7 0.00 0.00 0.00 41 1019.1
20260502160532 15 43 6.4 17.7 0.00 0.00 0.00 41 1019.1
20260502160130 15 338 3.2 17.7 0.00 0.00 0.00 42 1019.0
20260502152048 14 60 3.2 12.9 0.00 0.00 0.00 44 1018.8
20260502151629 14 17 3.2 12.9 0.00 0.00 0.00 44 1018.8
20260502151020 14 5 3.2 9.7 0.00 0.00 0.00 45 1018.8
20260502150520 14 5 1.6 9.7 0.00 0.00 0.00 44 1018.7
20260502150108 13 40 4.8 9.7 0.00 0.00 0.00 45 1018.7
20260502140114 9 327 4.8 8.0 0.00 0.00 0.00 62 1018.7
20260502130537 6 332 6.4 14.5 0.00 0.00 0.00 66 1018.5
20260502130130 6 317 6.4 14.5 0.00 0.00 0.00 66 1018.3
20260502123531 6 305 3.2 6.4 0.00 0.00 0.00 66 1018.0
20260502123117 6 315 3.2 4.8 0.00 0.00 0.00 65 1017.8
20260502122532 6 316 1.6 9.7 0.00 0.00 0.00 65 1017.9
20260502122035 6 318 3.2 9.7 0.00 0.00 0.00 64 1017.8
20260502121641 6 300 3.2 11.3 0.00 0.00 0.00 64 1018.0
20260502121026 7 304 4.8 8.0 0.00 0.00 0.00 61 1017.9
20260502120542 6 18 1.6 6.4 0.00 0.00 0.00 64 1017.7
20260502120137 6 327 1.6 8.0 0.00 0.00 0.00 64 1017.6
20260502115519 6 296 3.2 8.0 0.00 0.00 0.00 62 1017.6
20260502115028 6 307 3.2 6.4 0.00 0.00 0.00 61 1017.4
20260502114639 7 327 3.2 6.4 0.00 0.00 0.00 59 1017.3
20260502114027 7 352 1.6 6.4 0.00 0.00 0.00 59 1017.1
20260502113536 7 317 3.2 9.7 0.00 0.00 0.00 58 1017.3
20260502113131 8 312 6.4 9.7 0.00 0.00 0.00 57 1017.0
20260502112538 8 21 4.8 9.7 0.00 0.00 0.00 55 1016.8
20260502112018 8 59 6.4 14.5 0.00 0.00 0.00 54 1016.6
20260502111641 8 49 4.8 14.5 0.00 0.00 0.00 55 1016.7
20260502111030 8 50 6.4 14.5 0.00 0.00 0.00 55 1016.7
20260502110522 8 22 8.0 14.5 0.00 0.00 0.00 54 1016.6
20260502110144 8 36 6.4 14.5 0.00 0.00 0.00 54 1016.4
20260502105520 8 67 6.4 14.5 0.00 0.00 0.00 55 1016.3
20260502105040 7 74 6.4 14.5 0.00 0.00 0.00 55 1016.2
20260502104640 7 86 6.4 17.7 0.00 0.00 0.00 55 1016.1
20260502104028 8 40 6.4 17.7 0.00 0.00 0.00 54 1016.1
20260502103519 8 25 8.0 17.7 0.00 0.00 0.00 54 1016.1
20260502103118 8 51 6.4 16.1 0.00 0.00 0.00 55 1016.1
20260502102527 7 44 4.8 11.3 0.00 0.00 0.00 58 1016.0
20260502102037 6 11 3.2 6.4 0.00 0.00 0.00 59 1016.0
20260502101638 6 304 3.2 6.4 0.00 0.00 0.00 59 1016.0
20260502101019 7 305 4.8 8.0 0.00 0.00 0.00 58 1015.9
20260502100530 7 297 4.8 8.0 0.00 0.00 0.00 55 1015.8
20260502100144 7 317 4.8 8.0 0.00 0.00 0.00 55 1015.9
20260502091036 6 343 4.8 16.1 0.00 0.00 0.00 59 1015.3
20260502090541 6 300 11.3 17.7 0.00 0.00 0.00 59 1015.3
20260502090147 7 316 9.7 17.7 0.00 0.00 0.00 53 1015.4
20260502071044 5 345 1.6 6.4 0.00 0.00 0.00 64 1014.4
20260502070534 5 293 1.6 4.8 0.00 0.00 0.00 64 1014.2
20260502070202 4 286 0.0 3.2 0.00 0.00 0.00 69 1014.1
20260502065540 5 276 1.6 3.2 0.00 0.00 0.00 67 1014.1
20260502065042 5 276 1.6 4.8 0.00 0.00 0.00 66 1014.2
20260502064654 5 276 1.6 4.8 0.00 0.00 0.00 60 1014.2
20260502064037 6 277 3.2 4.8 0.00 0.00 0.00 57 1014.1
20260502063517 5 254 3.2 4.8 0.00 0.00 0.00 59 1014.1
20260502063150 5 273 3.2 4.8 0.00 0.00 0.00 61 1014.2
20260502062550 5 284 1.6 4.8 0.00 0.00 0.00 61 1014.3
20260502062029 6 273 3.2 4.8 0.00 0.00 0.00 57 1014.3
20260502061631 6 273 3.2 4.8 0.00 0.00 0.00 57 1014.3
20260502061048 6 282 1.6 6.4 0.00 0.00 0.00 59 1014.2
20260502060545 6 264 4.8 6.4 0.00 0.00 0.00 58 1014.2
20260502060126 6 280 1.6 4.8 0.00 0.00 0.00 60 1014.1
20260502055533 7 279 3.2 4.8 0.00 0.00 0.00 57 1014.0
20260502055019 7 271 4.8 4.8 0.00 0.00 0.00 55 1014.1
20260502054655 7 274 3.2 4.8 0.00 0.00 0.00 54 1014.0
20260502054027 7 268 1.6 4.8 0.00 0.00 0.00 55 1014.0
20260502053537 7 273 3.2 4.8 0.00 0.00 0.00 57 1014.1
20260502053157 7 284 0.0 0.0 0.00 0.00 0.00 53 1014.0
20260502052529 7 284 0.0 8.0 0.00 0.00 0.00 57 1014.2
20260502052018 8 284 0.0 8.0 0.00 0.00 0.00 59 1014.2
20260502051641 8 291 0.0 1.6 0.00 0.00 0.00 58 1014.2
20260502051033 8 291 0.0 4.8 0.00 0.00 0.00 50 1014.1
20260502050535 10 304 0.0 1.6 0.00 0.00 0.00 45 1014.1
20260502050154 10 290 0.0 0.0 0.00 0.00 0.00 44 1014.0
20260502045530 10 290 0.0 0.0 0.00 0.00 0.00 45 1014.1
20260502045028 10 315 0.0 0.0 0.00 0.00 0.00 53 1014.1
20260502044637 10 347 0.0 6.4 0.00 0.00 0.00 52 1014.0
20260502044021 10 347 0.0 6.4 0.00 0.00 0.00 47 1014.0
20260502043535 11 347 0.0 6.4 0.00 0.00 0.00 44 1014.1
20260502043137 11 347 1.6 6.4 0.00 0.00 0.00 45 1014.1
20260502042547 11 274 1.6 3.2 0.00 0.00 0.00 44 1014.1
20260502042036 11 274 0.0 3.2 0.00 0.00 0.00 47 1014.0
20260502041611 12 274 0.0 4.8 0.00 0.00 0.00 43 1014.1
20260502041032 12 273 0.0 8.0 0.00 0.00 0.00 41 1014.0
20260502040525 13 321 1.6 8.0 0.00 0.00 0.00 40 1014.0
20260502040126 13 281 0.0 8.0 0.00 0.00 0.00 35 1013.9
20260502035525 15 311 3.2 8.0 0.00 0.00 0.00 35 1014.1
20260502035023 15 192 0.0 6.4 0.00 0.00 0.00 32 1013.8
20260502034610 14 319 0.0 12.9 0.00 0.00 0.00 33 1013.8
20260502034034 12 321 8.0 12.9 0.00 0.00 0.00 41 1013.8
20260502033516 12 152 1.6 8.0 0.00 0.00 0.00 37 1013.6
20260502033121 12 165 4.8 9.7 0.00 0.00 0.00 41 1013.7
20260502032522 11 234 3.2 9.7 0.00 0.00 0.00 48 1013.8
20260502032016 12 277 4.8 9.7 0.00 0.00 0.00 45 1013.9
20260502031619 13 220 0.0 0.0 0.00 0.00 0.00 37 1013.6
20260502031025 13 220 0.0 0.0 0.00 0.00 0.00 35 1013.6
20260502030543 13 220 0.0 0.0 0.00 0.00 0.00 40 1013.6
20260502030109 14 220 0.0 0.0 0.00 0.00 0.00 50 1013.6
20260502025543 15 220 0.0 1.6 0.00 0.00 0.00 34 1013.5
20260502025039 16 220 0.0 3.2 0.00 0.00 0.00 35 1013.3
20260502024625 16 161 1.6 3.2 0.00 0.00 0.00 29 1013.3
20260502024037 17 150 0.0 3.2 0.00 0.00 0.00 29 1013.2
20260502023540 17 144 0.0 3.2 0.00 0.00 0.00 29 1013.2
20260502023125 17 262 0.0 3.2 0.00 0.00 0.00 29 1013.1
20260502022538 17 262 0.0 3.2 0.00 0.00 0.00 29 1013.1
20260502022026 18 262 1.6 3.2 0.00 0.00 0.00 29 1013.1
20260502021617 19 288 0.0 3.2 0.00 0.00 0.00 28 1013.1
20260502021023 19 317 0.0 4.8 0.00 0.00 0.00 26 1013.1
20260502020519 20 317 0.0 4.8 0.00 0.00 0.00 25 1013.1
20260502020127 20 345 0.0 3.2 0.00 0.00 0.00 25 1013.1
20260502015536 21 313 1.6 4.8 0.00 0.00 0.00 24 1013.1
20260502015038 21 324 1.6 3.2 0.00 0.00 0.00 23 1013.1
20260502014633 21 332 0.0 8.0 0.00 0.00 0.00 23 1013.1